Location: *
(51.8167°N, 12.5000°E)
Time: 06:10:13
(UTC+00:00)

SPOT 1/Viking Rocket - Pass Details

Date: 16 September 2019
Orbit: 777 x 795 km, 98.5° (Epoch: 16 October)

Event Time Altitude Azimuth Distance (km) Brightness Sun altitude
Exits shadow 21:09:51 43° 269° (W) 1,092 4.4 -30.5°
Drops below altitude 10° 21:14:35 10° 334° (NNW) 2,354 6.9 -30.9°
Sets 21:17:01 0° 341° (NNW) 3,285 7.9 -31.1°
